STARLINK-1342, 45558

Orbit data source: Space-Track

STARLINK-1342, 45558 is a payload satellite owned by SpaceX/Seattle (US) in LEO that was launched on Wed, 22 Apr 2020 UTC via an FALCON 9 launch vehicle from the Air Force Eastern Test Range (AFETR). Payload-class satellites include a variety of spacecraft equipped with specific instruments for various scientific and technological missions. These include communications satellites like Starlink; space stations such as the ISS; scientific satellites like the Hubble; Earth observation satellites from companies like Planet Labs, Umbra, and HawkEye 360; GPS; miniature CubeSats for education and research; and military/defense satellites.

Loading next visibility...
Identifier
45558, 2020-025AD
Orbit
LEO
Country
Flag of USUS
Related business
Manufacturer
SpaceX/Seattle
Mission
Partially operational Commercial Communications
Bus & Motor
STARLINK, Unknown motor
Mass
260 kg wet, ~248 kg dry
Launch date (UTC)
2020-04-22 (5 years ago)
Launch vehicle
FALCON 9
Launch site
Air Force Eastern Test Range (AFETR)
Object type
Payload
Rocket body
Debris
Shape & HBR
Box + 1 Pan, 4.4 m
Radar Cross Section
13.562 m², Large (>1 m²)

Expand to show TLE details & history
Last TLE update: 7 hours ago

TLE from 7 hours ago
0 STARLINK-1342
1 45558U 20025AD  25242.25001157  .00301873  00000-0  13662-2 0  9994
2 45558  53.0508 191.3448 0010345  37.0082  69.1810 15.82535484  6032
Epoch: 2025-08-30T06:00Z
TLE epoch observation values (Epoch: 2025-08-30T06:00:00.999Z)
Latitude
50.24207°
Longitude
-121.37699°
Altitude
326.657 km
Speed
7.72 km/s
True Right ascension
20h 29m 15s
True Declination
50° 03' 43"
Sunlit
Object was in full shadow at epoch
Visualization orbit readout
Latitude
Unknown
Longitude
Unknown
Altitude
Unknown
Speed
Unknown
Apparent Right ascension
Unknown
Apparent Declination
Unknown
Sunlit
N/A
Visualization observer readout
Local Sidereal Time
05:03:16
Azimuth
Unknown
Elevation
Unknown
Doppler factor
Unknown
Orbital elements
Apogee altitude
330.486 km
Perigee altitude
316.62 km
Semi-major axis
6,701.69 km
Eccentricity
0.00103
Inclination
53.0508°
RAAN
191.3448°
Arg. of periapsis
37.0082°
True anomaly
69.29186°
Mean anomaly
69.181°
Eccentric anomaly
69.23642°
Mean motion
3.95609 °/min
Orbital period
91 mins
BSTAR
0.0013662
Loading maneuver chart data...
Computing Atmospheric mass density...
Loading historical data...
Loading historical data...
Loading historical data...
Loading historical data...
Loading historical data...
Loading historical data...
Loading historical data...

Documentation

Showing up to 5 results
|